Tracking 19854 objects as of 22-Sep-2019
HD Live streaming from Space Station
objects crossing your sky now

OPS 9315 (IDSCS 5)

Track OPS 9315 (IDSCS 5) now!
OPS 9315 (IDSCS 5) is classified as:


NORAD ID: 2219
Int'l Code: 1966-053F
Perigee: 33,713.5 km
Apogee: 34,100.8 km
Inclination: 4.0 °
Period: 1,340.8 minutes
Semi major axis: 40278 km
RCS: 0.3162 m2 (medium)
Launch date: June 16, 1966
Source: United States (US)
Launch site: AIR FORCE EASTERN TEST RANGE (AFETR)
aabbcc
Your satellite tracking list
Your tracking list is empty




NASA's NSSDC Master Catalog

Two Line Element Set (TLE):
1  2219U 66053F   19265.78293241 -.00000071  00000-0  00000+0 0  9991
2  2219   3.9940  59.8517 0048078 126.5273 234.1761  1.07398670112963
Source of the keplerian elements: AFSPC